Year,Month,Day,Hour,Minute,Value (Times are PST for temperature in C)
2016,08,07,09,33,16.90
2016,08,07,09,34,17.00
2016,08,07,09,35,17.00
2016,08,07,09,36,17.00
2016,08,07,09,37,17.10
2016,08,07,09,38,17.10
2016,08,07,09,39,17.20
2016,08,07,09,40,17.20
2016,08,07,09,41,17.20
2016,08,07,09,42,17.30
2016,08,07,09,43,17.30
2016,08,07,09,44,17.30
2016,08,07,09,45,17.30
2016,08,07,09,46,17.30
2016,08,07,09,47,17.40
2016,08,07,09,48,17.40
2016,08,07,09,49,17.30
2016,08,07,09,50,17.30
2016,08,07,09,51,17.20
2016,08,07,09,52,17.20
2016,08,07,09,53,17.10
2016,08,07,09,54,17.10
2016,08,07,09,55,17.10
2016,08,07,09,56,17.10
2016,08,07,09,57,17.00
2016,08,07,09,58,17.00
2016,08,07,09,59,16.90
2016,08,07,10,00,16.90
2016,08,07,10,01,16.90
2016,08,07,10,02,16.90
2016,08,07,10,03,16.90
2016,08,07,10,04,17.00
2016,08,07,10,05,17.00
2016,08,07,10,06,17.10
2016,08,07,10,07,17.10
2016,08,07,10,08,17.10
2016,08,07,10,09,17.10
2016,08,07,10,10,17.10
2016,08,07,10,11,17.10
2016,08,07,10,12,17.10
2016,08,07,10,13,17.10
2016,08,07,10,14,17.10
2016,08,07,10,15,17.10
2016,08,07,10,16,17.10
2016,08,07,10,17,17.10
2016,08,07,10,18,17.00
2016,08,07,10,19,17.00
2016,08,07,10,20,17.10
2016,08,07,10,21,17.10
2016,08,07,10,22,17.10
2016,08,07,10,23,17.20
2016,08,07,10,24,17.20
2016,08,07,10,25,17.30
2016,08,07,10,26,17.30
2016,08,07,10,27,17.30
2016,08,07,10,28,17.40
2016,08,07,10,29,17.40
2016,08,07,10,30,17.40
2016,08,07,10,31,17.40
2016,08,07,10,32,17.40
2016,08,07,10,33,17.50
2016,08,07,10,34,17.60
2016,08,07,10,35,17.60
2016,08,07,10,36,17.60
2016,08,07,10,37,17.60
2016,08,07,10,38,17.60
2016,08,07,10,39,17.70
2016,08,07,10,40,17.70
2016,08,07,10,41,17.70
2016,08,07,10,42,17.70
2016,08,07,10,43,17.70
2016,08,07,10,44,17.70
2016,08,07,10,45,17.70
2016,08,07,10,46,17.70
2016,08,07,10,47,17.70
2016,08,07,10,48,17.60
2016,08,07,10,49,17.60
2016,08,07,10,50,17.60
2016,08,07,10,51,17.50
2016,08,07,10,52,17.50
2016,08,07,10,53,17.40
2016,08,07,10,54,17.40
2016,08,07,10,55,17.30
2016,08,07,10,56,17.30
2016,08,07,10,57,17.30
2016,08,07,10,58,17.30
2016,08,07,10,59,17.30
2016,08,07,11,00,17.30
2016,08,07,11,01,17.30
2016,08,07,11,02,17.30
2016,08,07,11,03,17.30
2016,08,07,11,04,17.30
2016,08,07,11,05,17.30
2016,08,07,11,06,17.30
2016,08,07,11,07,17.40
2016,08,07,11,08,17.30
2016,08,07,11,09,17.40
2016,08,07,11,10,17.40
2016,08,07,11,11,17.30
2016,08,07,11,12,17.40
2016,08,07,11,13,17.40
2016,08,07,11,14,17.30
2016,08,07,11,15,17.30
2016,08,07,11,16,17.30
2016,08,07,11,17,17.40
2016,08,07,11,18,17.40
2016,08,07,11,19,17.40
2016,08,07,11,20,17.40
2016,08,07,11,21,17.40
2016,08,07,11,22,17.40
2016,08,07,11,23,17.50
2016,08,07,11,24,17.50
2016,08,07,11,25,17.60
2016,08,07,11,26,17.50
2016,08,07,11,27,17.50
2016,08,07,11,28,17.50
2016,08,07,11,29,17.40
2016,08,07,11,30,17.40
2016,08,07,11,31,17.40
2016,08,07,11,32,17.40
2016,08,07,11,33,17.40
2016,08,07,11,34,17.40
2016,08,07,11,35,17.40
2016,08,07,11,36,17.40
2016,08,07,11,37,17.40
2016,08,07,11,38,17.40
2016,08,07,11,39,17.40
2016,08,07,11,40,17.50
2016,08,07,11,41,17.50
2016,08,07,11,42,17.50
2016,08,07,11,43,17.50
2016,08,07,11,44,17.40
2016,08,07,11,45,17.40
2016,08,07,11,46,17.40
2016,08,07,11,47,17.50
2016,08,07,11,48,17.50
2016,08,07,11,49,17.50
2016,08,07,11,50,17.50
2016,08,07,11,51,17.50
2016,08,07,11,52,17.40
2016,08,07,11,53,17.50
2016,08,07,11,54,17.50
2016,08,07,11,55,17.50
2016,08,07,11,56,17.40
2016,08,07,11,57,17.40
2016,08,07,11,58,17.40
2016,08,07,11,59,17.40
2016,08,07,12,00,17.40
2016,08,07,12,01,17.40
2016,08,07,12,02,17.40
2016,08,07,12,03,17.30
2016,08,07,12,04,17.30
2016,08,07,12,05,17.30
2016,08,07,12,06,17.30
2016,08,07,12,07,17.30
2016,08,07,12,08,17.30
2016,08,07,12,09,17.30
2016,08,07,12,10,17.30
2016,08,07,12,11,17.30
2016,08,07,12,12,17.30
2016,08,07,12,13,17.30
2016,08,07,12,14,17.40
2016,08,07,12,15,17.40
2016,08,07,12,16,17.30
2016,08,07,12,17,17.30
2016,08,07,12,18,17.30
2016,08,07,12,19,17.20
2016,08,07,12,20,17.20
2016,08,07,12,21,17.10
2016,08,07,12,22,17.10
2016,08,07,12,23,17.10
2016,08,07,12,24,17.10
2016,08,07,12,25,17.10
2016,08,07,12,26,17.20
2016,08,07,12,27,17.20
2016,08,07,12,28,17.20
2016,08,07,12,29,17.20
2016,08,07,12,30,17.20
2016,08,07,12,31,17.20
2016,08,07,12,32,17.20
2016,08,07,12,33,17.20
2016,08,07,12,34,17.20
2016,08,07,12,35,17.30
2016,08,07,12,36,17.30
2016,08,07,12,37,17.30
2016,08,07,12,38,17.30
2016,08,07,12,39,17.20
2016,08,07,12,40,17.20
2016,08,07,12,41,17.30
2016,08,07,12,42,17.30
2016,08,07,12,43,17.30
2016,08,07,12,44,17.30
2016,08,07,12,45,17.30
2016,08,07,12,46,17.30
2016,08,07,12,47,17.30
2016,08,07,12,48,17.30
2016,08,07,12,49,17.30
2016,08,07,12,50,17.30
2016,08,07,12,51,17.40
2016,08,07,12,52,17.40
2016,08,07,12,53,17.40
2016,08,07,12,54,17.40
2016,08,07,12,55,17.40
2016,08,07,12,56,17.40
2016,08,07,12,57,17.40
2016,08,07,12,58,17.40
2016,08,07,12,59,17.50
2016,08,07,13,00,17.50
2016,08,07,13,01,17.50
2016,08,07,13,02,17.60
2016,08,07,13,03,17.60
2016,08,07,13,04,17.60
2016,08,07,13,05,17.60
2016,08,07,13,06,17.60
2016,08,07,13,07,17.60
2016,08,07,13,08,17.70
2016,08,07,13,09,17.70
2016,08,07,13,10,17.80
2016,08,07,13,11,17.80
2016,08,07,13,12,17.80
2016,08,07,13,13,17.80
2016,08,07,13,14,17.80
2016,08,07,13,15,17.80
2016,08,07,13,16,17.80
2016,08,07,13,17,17.80
2016,08,07,13,18,17.80
2016,08,07,13,19,17.80
2016,08,07,13,20,17.90
2016,08,07,13,21,18.00
2016,08,07,13,22,18.10
2016,08,07,13,23,18.10
2016,08,07,13,24,18.10
2016,08,07,13,25,18.00
2016,08,07,13,26,18.00
2016,08,07,13,27,17.90
2016,08,07,13,28,17.80
2016,08,07,13,29,17.80
2016,08,07,13,30,17.80
2016,08,07,13,31,17.80
2016,08,07,13,32,17.80
2016,08,07,13,33,17.80
2016,08,07,13,34,17.70
2016,08,07,13,35,17.80
2016,08,07,13,36,17.80
2016,08,07,13,37,17.70
2016,08,07,13,38,17.70
2016,08,07,13,39,17.70
2016,08,07,13,40,17.70
2016,08,07,13,41,17.70
2016,08,07,13,42,17.70
2016,08,07,13,43,17.70
2016,08,07,13,44,17.60
2016,08,07,13,45,17.70
2016,08,07,13,46,17.70
2016,08,07,13,47,17.60
2016,08,07,13,48,17.60
2016,08,07,13,49,17.60
2016,08,07,13,50,17.60
2016,08,07,13,51,17.70
2016,08,07,13,52,17.70
2016,08,07,13,53,17.70
2016,08,07,13,54,17.70
2016,08,07,13,55,17.70
2016,08,07,13,56,17.70
2016,08,07,13,57,17.80
2016,08,07,13,58,17.80
2016,08,07,13,59,17.90
2016,08,07,14,00,17.90
2016,08,07,14,01,17.80
2016,08,07,14,02,17.80
2016,08,07,14,03,17.80
2016,08,07,14,04,17.80
2016,08,07,14,05,17.80
2016,08,07,14,06,17.90
2016,08,07,14,07,18.00
2016,08,07,14,08,18.10
2016,08,07,14,09,18.10
2016,08,07,14,10,18.20
2016,08,07,14,11,18.20
2016,08,07,14,12,18.20
2016,08,07,14,13,18.30
2016,08,07,14,14,18.40
2016,08,07,14,15,18.40
2016,08,07,14,16,18.50
2016,08,07,14,17,18.50
2016,08,07,14,18,18.40
2016,08,07,14,19,18.40
2016,08,07,14,20,18.50
2016,08,07,14,21,18.60
2016,08,07,14,22,18.70
2016,08,07,14,23,18.70
2016,08,07,14,24,18.60
2016,08,07,14,25,18.50
2016,08,07,14,26,18.40
2016,08,07,14,27,18.50
2016,08,07,14,28,18.60
2016,08,07,14,29,18.60
2016,08,07,14,30,18.60
2016,08,07,14,31,18.50
2016,08,07,14,32,18.50
2016,08,07,14,33,18.50
2016,08,07,14,34,18.60
2016,08,07,14,35,18.60
2016,08,07,14,36,18.50
2016,08,07,14,37,18.50
2016,08,07,14,38,18.50
2016,08,07,14,39,18.50
2016,08,07,14,40,18.60
2016,08,07,14,41,18.60
2016,08,07,14,42,18.60
2016,08,07,14,43,18.70
2016,08,07,14,44,18.70
2016,08,07,14,45,18.80
2016,08,07,14,46,18.80
2016,08,07,14,47,18.80
2016,08,07,14,48,18.80
2016,08,07,14,49,18.70
2016,08,07,14,50,18.70
2016,08,07,14,51,18.70
2016,08,07,14,52,18.70
2016,08,07,14,53,18.70
2016,08,07,14,54,18.70
2016,08,07,14,55,18.70
2016,08,07,14,56,18.60
2016,08,07,14,57,18.60
2016,08,07,14,58,18.50
2016,08,07,14,59,18.40
2016,08,07,15,00,18.40
2016,08,07,15,01,18.40
2016,08,07,15,02,18.40
2016,08,07,15,03,18.30
2016,08,07,15,04,18.40
2016,08,07,15,05,18.40
2016,08,07,15,06,18.50
2016,08,07,15,07,18.60
2016,08,07,15,08,18.60
2016,08,07,15,09,18.70
2016,08,07,15,10,18.60
2016,08,07,15,11,18.50
2016,08,07,15,12,18.50
2016,08,07,15,13,18.60
2016,08,07,15,14,18.60
2016,08,07,15,15,18.60
2016,08,07,15,16,18.70
2016,08,07,15,17,18.80
2016,08,07,15,18,18.80
2016,08,07,15,19,18.70
2016,08,07,15,20,18.70
2016,08,07,15,21,18.90
2016,08,07,15,22,19.00
2016,08,07,15,23,19.10
2016,08,07,15,24,19.00
2016,08,07,15,25,18.90
2016,08,07,15,26,18.90
2016,08,07,15,27,18.90
2016,08,07,15,28,18.90
2016,08,07,15,29,18.90
2016,08,07,15,30,18.90
2016,08,07,15,31,18.90
2016,08,07,15,32,18.90
2016,08,07,15,33,18.90
2016,08,07,15,34,18.80
2016,08,07,15,35,18.90
2016,08,07,15,36,18.90
2016,08,07,15,37,18.90
2016,08,07,15,38,18.90
2016,08,07,15,39,18.90
2016,08,07,15,40,18.90
2016,08,07,15,41,18.80
2016,08,07,15,42,18.70
2016,08,07,15,43,18.80
2016,08,07,15,44,18.80
2016,08,07,15,45,18.80
2016,08,07,15,46,18.80
2016,08,07,15,47,18.90
2016,08,07,15,48,18.90
2016,08,07,15,49,18.90
2016,08,07,15,50,18.90
2016,08,07,15,51,19.00
2016,08,07,15,52,19.00
2016,08,07,15,53,18.90
2016,08,07,15,54,18.90
2016,08,07,15,55,18.80
2016,08,07,15,56,18.80
2016,08,07,15,57,18.80
2016,08,07,15,58,18.70
2016,08,07,15,59,18.70
2016,08,07,16,00,18.80
2016,08,07,16,01,18.80
2016,08,07,16,02,18.80
2016,08,07,16,03,18.80
2016,08,07,16,04,18.80
2016,08,07,16,05,18.80
2016,08,07,16,06,18.80
2016,08,07,16,07,18.90
2016,08,07,16,08,18.90
2016,08,07,16,09,18.90
2016,08,07,16,10,18.90
2016,08,07,16,11,18.80
2016,08,07,16,12,18.90
2016,08,07,16,13,18.90
2016,08,07,16,14,18.90
2016,08,07,16,15,19.00
2016,08,07,16,16,19.00
2016,08,07,16,17,19.20
2016,08,07,16,18,19.20
2016,08,07,16,19,19.20
2016,08,07,16,20,19.10
2016,08,07,16,21,19.10
2016,08,07,16,22,19.00
2016,08,07,16,23,19.00
2016,08,07,16,24,19.00
2016,08,07,16,25,19.00
2016,08,07,16,26,19.00
2016,08,07,16,27,19.00
2016,08,07,16,28,18.90
2016,08,07,16,29,19.00
2016,08,07,16,30,19.00
2016,08,07,16,31,19.00
2016,08,07,16,32,19.00
2016,08,07,16,33,19.10
2016,08,07,16,34,19.10
2016,08,07,16,35,19.20
2016,08,07,16,36,19.20
2016,08,07,16,37,19.10
2016,08,07,16,38,19.10
2016,08,07,16,39,19.20
2016,08,07,16,40,19.20
2016,08,07,16,41,19.30
2016,08,07,16,42,19.30
2016,08,07,16,43,19.20
2016,08,07,16,44,19.20
2016,08,07,16,45,19.10
2016,08,07,16,46,19.10
2016,08,07,16,47,19.10
2016,08,07,16,48,19.10
2016,08,07,16,49,19.10
2016,08,07,16,50,19.10
2016,08,07,16,51,19.10
2016,08,07,16,52,19.10
2016,08,07,16,53,19.10
2016,08,07,16,54,19.10
2016,08,07,16,55,19.00
2016,08,07,16,56,19.00
2016,08,07,16,57,19.10
2016,08,07,16,58,19.10
2016,08,07,16,59,19.20
2016,08,07,17,00,19.30
2016,08,07,17,01,19.40
2016,08,07,17,02,19.50
2016,08,07,17,03,19.50
2016,08,07,17,04,19.40
2016,08,07,17,05,19.30
2016,08,07,17,06,19.10
2016,08,07,17,07,19.10
2016,08,07,17,08,19.00
2016,08,07,17,09,19.00
2016,08,07,17,10,19.00
2016,08,07,17,11,19.00
2016,08,07,17,12,19.00
2016,08,07,17,13,19.10
2016,08,07,17,14,19.00
2016,08,07,17,15,19.00
2016,08,07,17,16,19.00
2016,08,07,17,17,18.90
2016,08,07,17,18,18.90
2016,08,07,17,19,18.90
2016,08,07,17,20,19.00
2016,08,07,17,21,19.10
2016,08,07,17,22,19.20
2016,08,07,17,23,19.20
2016,08,07,17,24,19.20
2016,08,07,17,25,19.20
2016,08,07,17,26,19.10
2016,08,07,17,27,19.10
2016,08,07,17,28,19.10
2016,08,07,17,29,19.00
2016,08,07,17,30,18.90
2016,08,07,17,31,18.90
2016,08,07,17,32,18.90
2016,08,07,17,33,18.80
2016,08,07,17,34,18.80
2016,08,07,17,35,18.80
2016,08,07,17,36,18.80
2016,08,07,17,37,18.90
2016,08,07,17,38,18.90
2016,08,07,17,39,18.90
2016,08,07,17,40,19.00
2016,08,07,17,41,19.00
2016,08,07,17,42,19.00
2016,08,07,17,43,19.00
2016,08,07,17,44,19.10
2016,08,07,17,45,19.10
2016,08,07,17,46,19.20
2016,08,07,17,47,19.20
2016,08,07,17,48,19.20
2016,08,07,17,49,19.20
2016,08,07,17,50,19.20
2016,08,07,17,51,19.20
2016,08,07,17,52,19.20
2016,08,07,17,53,19.30
2016,08,07,17,54,19.30
2016,08,07,17,55,19.30
2016,08,07,17,56,19.30
2016,08,07,17,57,19.20
2016,08,07,17,58,19.10
2016,08,07,17,59,19.00
2016,08,07,18,00,18.90
2016,08,07,18,01,18.90
2016,08,07,18,02,18.90
2016,08,07,18,03,18.90
2016,08,07,18,04,18.90
2016,08,07,18,05,18.90
2016,08,07,18,06,18.80
2016,08,07,18,07,18.70
2016,08,07,18,08,18.70
2016,08,07,18,09,18.70
2016,08,07,18,10,18.70
2016,08,07,18,11,18.70
2016,08,07,18,12,18.80
2016,08,07,18,13,18.80
2016,08,07,18,14,18.80
2016,08,07,18,15,18.90
2016,08,07,18,16,18.90
2016,08,07,18,17,18.90
2016,08,07,18,18,19.00
2016,08,07,18,19,18.90
2016,08,07,18,20,18.90
2016,08,07,18,21,18.90
2016,08,07,18,22,18.90
2016,08,07,18,23,18.90
2016,08,07,18,24,18.90
2016,08,07,18,25,18.90
2016,08,07,18,26,18.90
2016,08,07,18,27,18.90
2016,08,07,18,28,18.90
2016,08,07,18,29,18.90
2016,08,07,18,30,18.90
2016,08,07,18,31,19.00
2016,08,07,18,32,19.00
2016,08,07,18,33,19.10
2016,08,07,18,34,19.10
2016,08,07,18,35,19.10
2016,08,07,18,36,19.10
2016,08,07,18,37,19.10
2016,08,07,18,38,19.10
2016,08,07,18,39,19.10
2016,08,07,18,40,19.10
2016,08,07,18,41,19.10
2016,08,07,18,42,19.10
2016,08,07,18,43,19.10
2016,08,07,18,44,19.00
2016,08,07,18,45,18.90
2016,08,07,18,46,18.90
2016,08,07,18,47,18.80
2016,08,07,18,48,18.80
2016,08,07,18,49,18.80
2016,08,07,18,50,18.80
2016,08,07,18,51,18.80
2016,08,07,18,52,18.80
2016,08,07,18,53,18.80
2016,08,07,18,54,18.80
2016,08,07,18,55,18.80
2016,08,07,18,56,18.70
2016,08,07,18,57,18.80
2016,08,07,18,58,18.70
2016,08,07,18,59,18.70
2016,08,07,19,00,18.70
2016,08,07,19,01,18.60
2016,08,07,19,02,18.60
2016,08,07,19,03,18.60
2016,08,07,19,04,18.60
2016,08,07,19,05,18.50
2016,08,07,19,06,18.50
2016,08,07,19,07,18.50
2016,08,07,19,08,18.50
2016,08,07,19,09,18.50
2016,08,07,19,10,18.50
2016,08,07,19,11,18.50
2016,08,07,19,12,18.50
2016,08,07,19,13,18.50
2016,08,07,19,14,18.50
2016,08,07,19,15,18.50
2016,08,07,19,16,18.50
2016,08,07,19,17,18.40
2016,08,07,19,18,18.40
2016,08,07,19,19,18.40
2016,08,07,19,20,18.40
2016,08,07,19,21,18.40
2016,08,07,19,22,18.40
2016,08,07,19,23,18.40
2016,08,07,19,24,18.40
2016,08,07,19,25,18.40
2016,08,07,19,26,18.30
2016,08,07,19,27,18.30
2016,08,07,19,28,18.30
2016,08,07,19,29,18.20
2016,08,07,19,30,18.20
2016,08,07,19,31,18.10
2016,08,07,19,32,18.10
2016,08,07,19,33,18.10
2016,08,07,19,34,18.10
2016,08,07,19,35,18.00
2016,08,07,19,36,18.00
2016,08,07,19,37,18.00
2016,08,07,19,38,18.00
2016,08,07,19,39,18.00
2016,08,07,19,40,17.90
2016,08,07,19,41,17.90
2016,08,07,19,42,17.90
2016,08,07,19,43,17.90
2016,08,07,19,44,17.90
2016,08,07,19,45,17.90
2016,08,07,19,46,17.90
2016,08,07,19,47,17.90
2016,08,07,19,48,17.90
2016,08,07,19,49,17.90
2016,08,07,19,50,17.90
2016,08,07,19,51,17.90
2016,08,07,19,52,17.90
2016,08,07,19,53,17.80
2016,08,07,19,54,17.80
2016,08,07,19,55,17.80
2016,08,07,19,56,17.80
2016,08,07,19,57,17.80
2016,08,07,19,58,17.80
2016,08,07,19,59,17.80
2016,08,07,20,00,17.80
2016,08,07,20,01,17.80
2016,08,07,20,02,17.80
2016,08,07,20,03,17.80
